DELTA 1 R/B, 2096

Orbit data source: Space-Track

DELTA 1 R/B, 2096 is space debris in SSO originally from a launch on Mon, 28 Feb 1966 UTC launched from the Air Force Eastern Test Range (AFETR). Debris objects in space refer to the collection of defunct objects orbiting the Earth. Examples of debris include non-operational satellites, rocket bodies, and fragments generated from explosions, collisions, or faulty payload assembly.

Loading next visibility...
Identifier
2096, 1966-016B
Orbit
SSO
Country
Flag of USUS
Related business
Manufacturer
ABL
Mission
Spacecraft
Bus & Motor
ALTAIR, Unknown motor
Mass
33 kg wet, 33 kg dry
Launch date (UTC)
1966-02-28 (60 years ago)
Launch vehicle
Unknown
Launch site
Air Force Eastern Test Range (AFETR)
Object type
Payload
Rocket body
Debris
Shape & HBR
Unknown
Radar Cross Section
Medium (>0.1 m² and <1 m²)

Expand to show TLE details & history
Last TLE update: 9 hours ago

TLE from 9 hours ago
0 DELTA 1 R/B
1  2096U 66016B   26121.48261470  .00000000  00000-0  21222-3 0  9992
2  2096 100.8814 321.6260 0039312 257.9214 167.5938 12.69995466788143
Epoch: 2026-05-01T11:34Z
TLE epoch observation values (Epoch: 2026-05-01T11:34:57.910Z)
Latitude
63.51676°
Longitude
-94.10747°
Altitude
1,422.551 km
Speed
7.142 km/s
True Right ascension
19h 56m 11s
True Declination
63° 23' 27"
Sunlit
Object was in daylight at epoch
Visualization orbit readout
Latitude
Unknown
Longitude
Unknown
Altitude
Unknown
Speed
Unknown
Apparent Right ascension
Unknown
Apparent Declination
Unknown
Sunlit
N/A
Visualization observer readout
Local Sidereal Time
04:20:27
Azimuth
Unknown
Elevation
Unknown
Doppler factor
Unknown
Orbital elements
Apogee altitude
1,409.926 km
Perigee altitude
1,348.933 km
Semi-major axis
7,757.566 km
Eccentricity
0.00393
Inclination
100.8814°
RAAN
321.626°
Arg. of periapsis
257.9214°
True anomaly
167.69012°
Mean anomaly
167.5938°
Eccentric anomaly
167.64201°
Mean motion
3.17654 °/min
Orbital period
113.33 mins
BSTAR
0.00021222
Loading maneuver chart data...
Computing Atmospheric mass density...
Loading historical data...
Loading historical data...
Loading historical data...
Loading historical data...
Loading historical data...
Loading historical data...
Loading historical data...
Other satellites on launch #16 in the year 1966 (1966-02-28 UTC)

Documentation

Showing up to 5 results
|